テンペル第2彗星

10P/Tempel 2 (2021)

English version
Home page
Updated on September 11, 2021

---------------------------------------------------------------------

・ プロフィール

・ 写真集

・ 軌道要素

Epoch 2021 July 5.0 TT = JDT 2459400.5
T 2021 Mar. 24.26184 TT                                 Rudenko
q   1.4124407            (2000.0)            P               Q
n   0.18403551     Peri.  195.49635     +0.68068602     +0.70896260
a   3.0610351      Node   117.80882     -0.64800925     +0.70016803
e   0.5385742      Incl.   12.03945     -0.34168780     +0.08447937
P   5.36
From 3860 observations 2003 Mar. 7-2021 June 28, mean residual 0".6.
     Nongravitational parameters A1 = +0.02, A2 = +0.0005.

・ 星図

・ 光度変化

        H = 13.6  G = 0.15              [    ,-155]  (              〜2020年10月20日)
        m1 =  4.6 + 5 logΔ + 35 log r  [-155,   0]  (2020年10月20日〜2021年 3月24日)
        m1 =  7.2 + 5 logΔ + 18 log r  [   0, 405]  (2021年 3月24日〜2022年 5月 3日)
        H = 13.6  G = 0.15              [ 405,    ]  (2022年 5月 3日〜              )

---------------------------------------------------------------------

軌道要素はM.P.E.C. 2021-N06に掲載されたものです。
星図はステラナビゲータ Ver.10 (アストロアーツ) で作成したものです。
光度グラフはComet for Windowsで作成したものです。

---------------------------------------------------------------------

Copyright(C) Seiichi Yoshida (comet@aerith.net). All rights reserved.